Total_Precipitation_Accumulation
0.21 0.13 0.12 0.09 0.03 0.02 0.03 0.04 0.05 0.03 0.07 0.07 0.00 0.00 0.00 0.00 0.00 0.00 0.00 0.00 0.03 0.03 0.01 0.04 0.07 0.03 0.03 0.03 0.02 0.01 0.02 0.03 0.03
0.20 0.09 0.04 0.04 0.05 0.08 0.09 0.07 0.06 0.07 0.13 0.22 0.06 0.01 0.00 0.00 0.00 0.00 0.00 0.00 0.00 0.02 0.01 0.01 0.07 0.05 0.04 0.02 0.01 0.02 0.01 0.00 0.02
0.17 0.12 0.07 0.04 0.04 0.06 0.08 0.10 0.06 0.07 0.18 0.34 0.11 0.01 0.03 0.01 0.01 0.00 0.00 0.00 0.00 0.01 0.02 0.02 0.06 0.11 0.05 0.05 0.02 0.02 0.01 0.01 0.02
0.16 0.13 0.11 0.07 0.05 0.05 0.05 0.06 0.05 0.10 0.29 0.36 0.10 0.00 0.01 0.04 0.02 0.00 0.00 0.00 0.00 0.02 0.02 0.04 0.04 0.11 0.09 0.09 0.02 0.02 0.02 0.04 0.03
0.19 0.09 0.07 0.10 0.09 0.07 0.05 0.04 0.02 0.07 0.13 0.17 0.08 0.01 0.00 0.03 0.03 0.01 0.00 0.00 0.04 0.04 0.02 0.01 0.02 0.07 0.08 0.08 0.04 0.02 0.03 0.03 0.03
0.14 0.12 0.06 0.11 0.11 0.06 0.05 0.04 0.03 0.01 0.01 0.02 0.01 0.01 0.00 0.01 0.04 0.01 0.00 0.02 0.13 0.19 0.09 0.01 0.03 0.06 0.11 0.08 0.04 0.02 0.04 0.05 0.07
0.41 0.30 0.11 0.09 0.10 0.10 0.05 0.08 0.05 0.02 0.00 0.00 0.00 0.00 0.00 0.01 0.02 0.01 0.00 0.03 0.14 0.30 0.29 0.10 0.06 0.12 0.14 0.20 0.10 0.09 0.09 0.03 0.05
0.39 0.33 0.20 0.10 0.04 0.01 0.01 0.07 0.08 0.03 0.00 0.00 0.00 0.00 0.00 0.01 0.02 0.00 0.00 0.03 0.09 0.18 0.34 0.15 0.06 0.05 0.16 0.24 0.19 0.11 0.13 0.07 0.04
0.19 0.24 0.24 0.19 0.13 0.04 0.01 0.02 0.04 0.02 0.00 0.00 0.01 0.01 0.00 0.00 0.02 0.01 0.01 0.04 0.08 0.15 0.29 0.19 0.10 0.06 0.08 0.09 0.10 0.12 0.09 0.08 0.07
0.09 0.16 0.23 0.20 0.21 0.16 0.10 0.04 0.01 0.01 0.01 0.01 0.00 0.00 0.01 0.03 0.02 0.04 0.03 0.03 0.11 0.17 0.18 0.14 0.09 0.11 0.08 0.04 0.08 0.10 0.07 0.07 0.06
0.05 0.06 0.10 0.15 0.23 0.28 0.22 0.15 0.10 0.05 0.04 0.02 0.01 0.00 0.00 0.01 0.03 0.03 0.07 0.00 0.02 0.13 0.24 0.16 0.16 0.14 0.13 0.16 0.15 0.14 0.11 0.11 0.07
0.42 0.22 0.13 0.14 0.21 0.31 0.28 0.19 0.13 0.11 0.11 0.08 0.08 0.08 0.04 0.01 0.02 0.05 0.08 0.04 0.02 0.02 0.20 0.19 0.22 0.23 0.18 0.18 0.16 0.14 0.10 0.09 0.09
0.28 0.73 0.59 0.38 0.34 0.45 0.41 0.27 0.17 0.11 0.10 0.09 0.10 0.16 0.15 0.08 0.04 0.03 0.05 0.08 0.05 0.03 0.03 0.18 0.34 0.33 0.19 0.17 0.18 0.20 0.21 0.13 0.07
0.05 0.22 0.67 0.86 0.64 0.43 0.53 0.68 0.66 0.45 0.31 0.22 0.15 0.14 0.14 0.09 0.04 0.03 0.03 0.02 0.03 0.04 0.03 0.04 0.15 0.37 0.38 0.25 0.26 0.25 0.20 0.25 0.16
0.00 0.04 0.20 0.51 0.83 0.80 0.75 0.70 0.64 0.65 0.55 0.44 0.31 0.21 0.17 0.15 0.09 0.04 0.04 0.03 0.02 0.01 0.02 0.02 0.04 0.12 0.25 0.33 0.31 0.25 0.21 0.21 0.20
0.00 0.00 0.01 0.10 0.37 0.76 0.95 1.07 0.97 0.84 0.79 0.77 0.56 0.29 0.15 0.07 0.05 0.04 0.04 0.04 0.02 0.02 0.02 0.03 0.04 0.05 0.12 0.24 0.31 0.32 0.26 0.23 0.22
0.00 0.00 0.00 0.03 0.07 0.14 0.31 0.69 0.93 0.99 1.00 1.15 0.90 0.67 0.39 0.19 0.05 0.02 0.03 0.03 0.03 0.01 0.01 0.03 0.06 0.09 0.09 0.10 0.17 0.23 0.28 0.18 0.22
0.00 0.00 0.00 0.00 0.04 0.09 0.15 0.27 0.45 0.55 0.66 0.88 1.02 0.89 0.58 0.27 0.12 0.07 0.05 0.05 0.07 0.08 0.05 0.03 0.03 0.07 0.11 0.13 0.11 0.19 0.20 0.26 0.30
0.00 0.00 0.00 0.00 0.00 0.02 0.10 0.21 0.31 0.50 0.53 0.57 0.71 0.69 0.49 0.35 0.20 0.07 0.05 0.05 0.05 0.04 0.05 0.06 0.04 0.06 0.10 0.10 0.12 0.11 0.14 0.22 0.28
0.00 0.00 0.00 0.00 0.00 0.00 0.04 0.16 0.25 0.30 0.42 0.65 0.57 0.64 0.61 0.52 0.51 0.29 0.11 0.05 0.03 0.03 0.03 0.05 0.04 0.04 0.08 0.11 0.15 0.18 0.14 0.19 0.26